User: anonymous   Login
Location: Abraham Lincoln Continuation High School
(33.9711°N, 117.3662°W)
Time: 21:11:30
(UTC+00:00)
Language:

Cosmos 1680 Rocket - Orbit

View from above orbital plane
View from above orbital plane
View from above satellite
View from above satellite

Ground track
Ground track

The orbit data is extracted from the following two-line orbital elements,

1 16012U 85079B   20336.73385041  .00000091  00000-0  40093-4 0  9994
2 16012  74.0592 337.4986 0016286 284.5046  75.4300 14.36345911845004
Epoch (UTC): 01 December 2020 17:36:44
Eccentricity: 0.0016286
inclination: 74.0592°
perigee height: 759 km
apogee height: 782 km
right ascension of ascending node: 337.4986°
argument of perigee: 284.5046°
revolutions per day: 14.36345911
mean anomaly at epoch: 75.4300°
orbit number at epoch: 84500

The dashed part of the orbit path shows where the satellite is in the earth's shadow,  

DLR